Regional Weather Roundup
Issued by NWS

Home | Current Version | Previous Version | Text Only | Print | Product List | Glossary On
Versions: 1 2 3 4 5 6 7 8 9 10 11 12 13 14 15 16 17 18 19 20 21 22 23 24 25 26 27 28 29 30 31 32 33 34 35 36 37 38 39 40 41 42 43 44 45 46 47 48 49
000
ASPQ40 PGUM 222312
RWRPQ
WEATHER ROUNDUP FOR THE MARIANAS AND MICRONESIA
NATIONAL WEATHER SERVICE TIYAN GU
900 AM CHST TUE SEP 23 2014

GUZ001>004-230000-
MARIANA ISLANDS-

CITY           SKY/WX    TMP DP  RH WIND       PRES   REMARKS
GUAM AIRPORT   RAIN      79  77  94 CALM      29.78  FOG
ANDERSEN AFB   RAIN      77  75  94 W8        29.77S
ROTA AIRPORT   PTSUNNY   77  75  94 NW6       29.77R
TINIAN AP      MOSUNNY   82  79  89 NE5       29.73S HX  93
SAIPAN AP      MOSUNNY   82  79  89 NE5       29.74R HX  93

$$

PMZ161-230000-
REPUBLIC OF PALAU-

CITY           SKY/WX    TMP DP  RH WIND       PRES   REMARKS
KOROR AP       PTSUNNY   82  77  83 W8        29.85R HX  91
KOROR WSO      PTSUNNY   82  77  83 W7        29.84R HX  91

$$

PMZ171>174-230000-
FEDERATED STATES OF MICRONESIA-

CITY           SKY/WX    TMP DP  RH WIND       PRES   REMARKS
YAP AIRPORT    PTSUNNY   84  77  79 W9        29.82S HX  94
CHUUK AP       CLOUDY    81  79  94 W9        29.84S
POHNPEI AP     NOT AVBL
POHNPEI WSO    CLOUDY    84  73  70 SE3       29.91S HX  91
KOSRAE AP      LGT RAIN  79  75  89 NW7       29.91R

$$

PMZ181-230000-
REPUBLIC OF THE MARSHALL ISLANDS-

CITY           SKY/WX    TMP DP  RH WIND       PRES   REMARKS
KWAJALEIN AP   PTSUNNY   84  75  74 S8        29.85S HX  92
MAJURO AP      CLOUDY    84  77  79 SW15      29.82  HX  94
MAJURO WSO     PTSUNNY   86  77  74 SW12      29.83F HX  97

$$



USA.gov is the U.S. government's official web portal to all federal, state and local government web resources and services.